Weather in Buryn

Ukraine / Sumi District     51°11′44″N   33°49′35″E
temp.,
°C
wind,
m/s
gust,
m/s
humid.,
%
clouds,
%
prec.,
mm/h
press.,
hPa
HPBL,
m
28 october, thu
thu2800:00+4w369310 0.0 1024118
03:00+4wsw3694100 0.0 1023134
06:00+5sw51190100 0.0 1022273
09:00+7wsw61484100 0.0 1020448
12:00+9w61283100 0.0 1020508
15:00+8w51191100 0.7 1020430
18:00+8wnw41095100 0.1 1022286
21:00+7wnw49964 0.1 1023189
29 october, fri
fri2900:00+6nw359644 0.0 102487
03:00+5n22935 0.0 102625
06:00+4nne22905 0.0 102710
09:00+6ene11865 0.0 102844
12:00+10ene116519 0.0 1029358
15:00+12sse11575 0.0 1029488
18:00+8sse11715 0.0 102910
21:00+7sse12740 0.0 103010
30 october, sat
sat3000:00+6sse33770 0.0 103125
03:00+5s23835 0.0 103124
06:00+5s23875 0.0 103224
09:00+6s25825 0.0 1032121
12:00+11s35595 0.0 1032440
15:00+13s35521 0.0 1031645
18:00+9sse33680 0.0 103131
21:00+7s34720 0.0 103148
31 october, sun
sun3100:00+6s35760 0.0 103168
03:00+5s35800 0.0 103166
05:00+5s34840 0.0 103162
08:00+6sse37780 0.0 1031152
11:00+11s46550 0.0 1030469
14:00+13sse45480 0.0 1028678
17:00+9sse33640 0.0 102825
20:00+7sse35650 0.0 102869
31 october, sun
sun3123:00+6sse37680 0.0 102790
02:00+5sse35710 0.0 102669
05:00+4se34750 0.0 102653
08:00+5se38730 0.0 1025176
11:00+11se58550 0.0 1023495
14:00+12se57510 0.0 1021774
17:00+8ese48660 0.0 1020135
20:00+7ese49690 0.0 1020156